Location: Lecco
(45.8566°N, 9.3977°E)
Time: 01:22:43
(UTC+02:00)

ISS - Pass Details

Date: 20 July 2018
Orbit: 402 x 408 km, 51.6° (Epoch: 18 July)

Event Time Altitude Azimuth Distance (km) Brightness Sun altitude
Rises 02:13:36 0° 290° (WNW) 2,327 0.1 -22.7°
Reaches altitude 10° 02:15:51 10° 302° (WNW) 1,468 -0.8 -22.6°
Maximum altitude 02:18:47 29° 6° (N) 775 -1.8 -22.5°
Drops below altitude 10° 02:21:44 10° 69° (ENE) 1,469 -0.6 -22.4°
Sets 02:23:59 0° 81° (E) 2,330 0.3 -22.3°
